Date String (YYYY-MM-DD hh:mm:ss) UTC,Instrument flags,Ambient pressure (hPa),Sample flow (lpm),Bypass flow (lpm),Sample temperature (°C),Ambient temperature (°C),ASC tube jacket temperature (°C),LED temperature (°C),Box temperature (°C),Sample RH (%),Span deviation,Mass concentration (μg/m³),Mass concentration (μg/m³),Mass concentration (μg/m³)
DateTimeUTC,F1_M11,P_M11,Q1_M11,Q2_M11,T1_M11,T2_M11,T3_M11,T4_M11,T5_M11,U1_M11,ZSPAN_M11,X0_M11,X2_M11,X1_M11
2022-12-16 17:00:00,,0824.3,5.00,0.00,22.0,22.5,00.0,30.7,24.0,03.0,0000.0,0002.62,0001.09,0000.93
2022-12-16 17:01:00,,0824.3,5.01,0.00,22.1,22.6,00.0,30.8,24.1,03.0,0000.0,0002.60,0001.09,0000.93
2022-12-16 17:02:00,,0824.3,5.00,0.00,22.1,22.1,00.0,30.8,24.0,03.1,0000.0,0002.68,0001.12,0000.93
2022-12-16 17:03:00,,0824.3,4.99,0.00,22.1,21.7,00.0,30.9,23.9,03.1,0000.0,0002.90,0001.13,0000.93
2022-12-16 17:04:00,,0824.2,5.04,0.00,22.1,21.4,00.0,30.9,23.8,03.2,0000.0,0003.18,0001.14,0000.94
2022-12-16 17:05:00,,0824.4,4.97,0.00,22.1,21.1,00.0,30.9,23.8,03.0,0000.0,0004.67,0001.15,0000.95
2022-12-16 17:06:00,,0824.3,4.98,0.00,22.1,21.0,00.0,30.9,23.7,03.0,0000.0,0004.69,0001.17,0000.97
2022-12-16 17:07:00,,0824.3,5.03,0.00,22.0,20.8,00.0,30.9,23.6,03.0,0000.0,0004.67,0001.17,0000.98
2022-12-16 17:08:00,,0824.2,4.98,0.00,22.0,20.7,00.0,30.9,23.6,03.0,0000.0,0004.72,0001.19,0000.99
2022-12-16 17:09:00,,0824.2,5.03,0.00,22.0,20.6,00.0,30.8,23.5,03.0,0000.0,0004.59,0001.22,0001.02
2022-12-16 17:10:00,,0824.3,4.97,0.00,21.9,20.5,00.0,30.8,23.4,03.1,0000.0,0004.37,0001.21,0001.03
2022-12-16 17:11:00,,0824.2,4.99,0.00,21.9,20.4,00.0,30.8,23.4,03.1,0000.0,0003.53,0001.21,0001.03
2022-12-16 17:12:00,,0824.2,5.01,0.00,21.8,20.3,00.0,30.8,23.4,03.2,0000.0,0003.54,0001.21,0001.04
2022-12-16 17:13:00,,0824.2,4.97,0.00,21.8,20.3,00.0,30.8,23.3,03.1,0000.0,0003.51,0001.20,0001.04
2022-12-16 17:14:00,,0824.2,5.04,0.00,21.8,20.2,00.0,30.8,23.3,03.2,0000.0,0003.33,0001.17,0001.05
2022-12-16 17:15:00,,0824.2,4.99,0.00,21.8,21.1,00.0,30.7,23.5,03.2,0000.0,0003.00,0001.12,0001.05
2022-12-16 17:16:00,,0824.2,5.01,0.00,22.0,22.3,00.0,30.7,23.9,03.1,0000.0,0001.99,0001.11,0001.05
2022-12-16 17:17:00,,0824.2,5.01,0.00,22.1,22.4,00.0,30.8,24.0,03.0,0000.0,0001.41,0001.14,0001.05
2022-12-16 17:18:00,,0824.2,4.99,0.00,22.1,22.0,00.0,30.8,24.0,03.2,0000.0,0001.42,0001.14,0001.05
2022-12-16 17:19:00,,0824.2,4.99,0.00,22.1,21.6,00.0,30.8,23.8,03.0,0000.0,0001.43,0001.14,0001.04
2022-12-16 17:20:00,,0824.3,5.04,0.00,22.1,21.3,00.0,30.8,23.8,03.0,0000.0,0001.50,0001.15,0001.03
2022-12-16 17:21:00,,0824.2,4.98,0.00,22.0,21.1,00.0,30.8,23.7,03.0,0000.0,0001.49,0001.14,0001.02
2022-12-16 17:22:00,,0824.2,4.98,0.00,22.0,20.9,00.0,30.9,23.5,03.0,0000.0,0001.54,0001.16,0001.03
2022-12-16 17:23:00,,0824.2,5.04,0.00,22.0,20.7,00.0,30.9,23.5,03.1,0000.0,0001.62,0001.19,0001.03
2022-12-16 17:24:00,,0824.3,4.97,0.00,21.9,20.6,00.0,30.8,23.3,03.1,0000.0,0001.68,0001.23,0001.03
2022-12-16 17:25:00,,0824.2,5.03,0.00,21.9,20.5,00.0,30.8,23.4,03.0,0000.0,0001.69,0001.24,0001.04
2022-12-16 17:26:00,,0824.3,4.97,0.00,21.9,20.4,00.0,30.8,23.4,03.0,0000.0,0002.13,0001.26,0001.04
2022-12-16 17:27:00,,0824.3,5.02,0.00,21.9,20.3,00.0,30.8,23.4,03.0,0000.0,0002.49,0001.27,0001.04
2022-12-16 17:28:00,,0824.2,4.99,0.00,21.8,20.2,00.0,30.8,23.3,03.0,0000.0,0002.46,0001.25,0001.05
2022-12-16 17:29:00,,0824.2,4.98,0.00,21.8,20.2,00.0,30.7,23.2,03.2,0000.0,0002.51,0001.24,0001.05
2022-12-16 17:30:00,,0824.2,5.05,0.00,21.8,20.5,00.0,30.7,23.3,03.1,0000.0,0003.54,0001.24,0001.06
2022-12-16 17:31:00,,0824.3,4.96,0.00,21.9,21.8,00.0,30.7,23.7,03.1,0000.0,0003.47,0001.22,0001.06
2022-12-16 17:32:00,,0824.3,5.05,0.00,22.0,22.4,00.0,30.7,24.0,03.0,0000.0,0003.50,0001.23,0001.06
2022-12-16 17:33:00,,0824.2,4.96,0.00,22.1,22.1,00.0,30.8,24.0,03.0,0000.0,0003.52,0001.24,0001.05
2022-12-16 17:34:00,,0824.3,5.03,0.00,22.1,21.7,00.0,30.8,23.9,03.1,0000.0,0003.43,0001.20,0001.05
2022-12-16 17:35:00,,0824.1,5.00,0.00,22.0,21.4,00.0,30.8,23.7,03.0,0000.0,0003.38,0001.17,0001.06
2022-12-16 17:36:00,,0824.2,4.97,0.00,22.0,21.1,00.0,30.8,23.7,03.0,0000.0,0003.38,0001.18,0001.06
2022-12-16 17:37:00,,0824.2,5.03,0.00,22.0,20.9,00.0,30.8,23.6,03.1,0000.0,0002.96,0001.16,0001.06
2022-12-16 17:38:00,,0824.2,4.97,0.00,22.0,20.8,00.0,30.8,23.5,03.0,0000.0,0002.63,0001.17,0001.07
2022-12-16 17:39:00,,0824.2,5.00,0.00,21.9,20.7,00.0,30.8,23.5,03.1,0000.0,0002.64,0001.17,0001.07
2022-12-16 17:40:00,,0824.2,5.02,0.00,21.9,20.6,00.0,30.8,23.5,03.0,0000.0,0002.65,0001.18,0001.07
2022-12-16 17:41:00,,0824.2,4.98,0.00,21.9,20.5,00.0,30.8,23.5,03.0,0000.0,0001.65,0001.18,0001.07
2022-12-16 17:42:00,,0824.2,5.04,0.00,21.9,20.5,00.0,30.8,23.5,03.1,0000.0,0001.54,0001.17,0001.07
2022-12-16 17:43:00,,0824.2,4.97,0.00,21.9,20.4,00.0,30.8,23.4,03.1,0000.0,0001.62,0001.16,0001.07
2022-12-16 17:44:00,,0824.2,4.98,0.00,21.8,20.3,00.0,30.8,23.3,03.0,0000.0,0001.55,0001.14,0001.08
2022-12-16 17:45:00,,0824.2,5.04,0.00,21.8,20.2,00.0,30.7,23.2,02.9,0000.0,0001.58,0001.15,0001.08
2022-12-16 17:46:00,,0824.2,4.97,0.00,21.7,20.2,00.0,30.7,23.2,03.0,0000.0,0001.65,0001.17,0001.08
2022-12-16 17:47:00,,0824.2,5.05,0.00,21.8,21.2,00.0,30.7,23.5,03.0,0000.0,0001.67,0001.16,0001.07
2022-12-16 17:48:00,,0824.2,4.96,0.00,21.9,22.3,00.0,30.7,23.9,03.0,0000.0,0001.75,0001.19,0001.06
2022-12-16 17:49:00,,0824.2,5.01,0.00,22.0,22.4,00.0,30.7,24.0,03.0,0000.0,0001.71,0001.18,0001.06
2022-12-16 17:50:00,,0824.1,5.00,0.00,22.0,22.1,00.0,30.8,24.0,02.9,0000.0,0001.77,0001.20,0001.07
2022-12-16 17:51:00,,0824.2,5.00,0.00,22.0,21.7,00.0,30.8,23.9,03.0,0000.0,0001.83,0001.23,0001.08
2022-12-16 17:52:00,,0824.2,5.03,0.00,22.0,21.4,00.0,30.8,23.8,03.0,0000.0,0001.87,0001.25,0001.08
2022-12-16 17:53:00,,0824.1,4.98,0.00,22.0,21.1,00.0,30.8,23.8,03.0,0000.0,0001.85,0001.26,0001.09
2022-12-16 17:54:00,,0824.1,4.98,0.00,22.0,20.9,00.0,30.8,23.7,03.0,0000.0,0001.76,0001.27,0001.10
2022-12-16 17:55:00,,0824.1,5.05,0.00,22.0,20.7,00.0,30.8,23.6,03.0,0000.0,0001.80,0001.29,0001.11
2022-12-16 17:56:00,,0824.1,4.97,0.00,22.0,20.6,00.0,30.8,23.5,03.0,0000.0,0001.81,0001.29,0001.11
2022-12-16 17:57:00,,0824.1,4.97,0.00,21.9,20.5,00.0,30.8,23.5,03.1,0000.0,0001.73,0001.27,0001.11
2022-12-16 17:58:00,,0824.1,5.04,0.00,21.9,20.4,00.0,30.8,23.4,03.0,0000.0,0001.84,0001.29,0001.12
2022-12-16 17:59:00,,0824.1,4.97,0.00,21.9,20.4,00.0,30.8,23.3,03.0,0000.0,0001.85,0001.28,0001.12
